JIA4461 KIND-KLGA

Flight info

Callsign JIA4461
Flight time 1h 5m
Altitude 35000
Route MAREO5 BDOCK WWSHR TEESY Q186 WEVEL ETG MIP4
Aircraft CRJ9/M-SDFGIRWY/S

Departure

Time 2026-05-08 01:28
Airport Indianapolis International Airport (KIND)

Arrival

Time 2026-05-08 02:33
Airport LaGuardia Airport (KLGA)
Time Latitude Longitude Altitude Speed Heading
2026-05-08 01:08 39.71705 -86.29630 785 ft 3 kts 301°
2026-05-08 01:08 39.71693 -86.29608 785 ft 3 kts 308°
2026-05-08 01:08 39.71689 -86.29600 785 ft 0 kts 309°
2026-05-08 01:15 39.71719 -86.29668 785 ft 0 kts 292°
2026-05-08 01:22 39.71715 -86.29657 785 ft 3 kts 294°
2026-05-08 01:23 39.71706 -86.29633 785 ft 3 kts 300°
2026-05-08 01:23 39.71695 -86.29610 785 ft 3 kts 307°
2026-05-08 01:23 39.71689 -86.29600 785 ft 0 kts 309°
2026-05-08 01:24 39.71714 -86.29606 785 ft 12 kts
2026-05-08 01:25 39.71807 -86.29467 785 ft 23 kts 56°
2026-05-08 01:25 39.71896 -86.29273 787 ft 26 kts 45°
2026-05-08 01:25 39.72021 -86.29108 789 ft 24 kts 45°
2026-05-08 01:25 39.72135 -86.28962 793 ft 22 kts 44°
2026-05-08 01:26 39.72242 -86.28826 796 ft 25 kts 47°
2026-05-08 01:26 39.72301 -86.28701 797 ft 25 kts 56°
2026-05-08 01:26 39.72318 -86.28673 797 ft 27 kts 50°
2026-05-08 01:26 39.72463 -86.28506 799 ft 20 kts
2026-05-08 01:27 39.72510 -86.28661 794 ft 27 kts 263°
2026-05-08 01:27 39.72595 -86.28920 788 ft 36 kts 302°
2026-05-08 01:27 39.72737 -86.29190 779 ft 36 kts 315°
2026-05-08 01:27 39.72706 -86.29457 776 ft 54 kts 224°
2026-05-08 01:28 39.72260 -86.30020 779 ft 122 kts 224°
2026-05-08 01:28 39.71519 -86.30964 844 ft 166 kts 225°
2026-05-08 01:28 39.70654 -86.31632 1915 ft 138 kts 189°
2026-05-08 01:28 39.69655 -86.31099 2236 ft 187 kts 139°
2026-05-08 01:29 39.69048 -86.29442 2625 ft 230 kts 101°
2026-05-08 01:29 39.69239 -86.27172 2857 ft 276 kts 69°
2026-05-08 01:29 39.70340 -86.25004 3437 ft 300 kts 49°
2026-05-08 01:29 39.71333 -86.22534 4109 ft 322 kts 78°
2026-05-08 01:30 39.71619 -86.19619 4889 ft 338 kts 85°
2026-05-08 01:30 39.71853 -86.16512 5700 ft 353 kts 83°
2026-05-08 01:30 39.72208 -86.13300 6513 ft 366 kts 79°
2026-05-08 01:30 39.72741 -86.10025 7338 ft 377 kts 75°
2026-05-08 01:31 39.73399 -86.06675 8011 ft 390 kts 73°
2026-05-08 01:31 39.74088 -86.03235 8886 ft 398 kts 73°
2026-05-08 01:31 39.74779 -85.99743 9773 ft 402 kts 72°
2026-05-08 01:31 39.75453 -85.96182 10575 ft 408 kts 73°
2026-05-08 01:32 39.76129 -85.92552 11168 ft 417 kts 73°
2026-05-08 01:32 39.76810 -85.88860 11928 ft 423 kts 72°
2026-05-08 01:32 39.77496 -85.85115 12668 ft 428 kts 72°
2026-05-08 01:32 39.78191 -85.81328 13405 ft 433 kts 72°
2026-05-08 01:33 39.78895 -85.77497 14073 ft 438 kts 72°
2026-05-08 01:33 39.79602 -85.73627 14653 ft 444 kts 72°
2026-05-08 01:33 39.80315 -85.69692 15215 ft 450 kts 72°
2026-05-08 01:33 39.81043 -85.65705 15760 ft 456 kts 72°
2026-05-08 01:34 39.81774 -85.61668 16326 ft 461 kts 72°
2026-05-08 01:34 39.82512 -85.57570 16872 ft 467 kts 72°
2026-05-08 01:34 39.83260 -85.53431 17388 ft 473 kts 72°
2026-05-08 01:34 39.84016 -85.49234 17905 ft 478 kts 72°
2026-05-08 01:35 39.84775 -85.44991 18416 ft 484 kts 72°
2026-05-08 01:35 39.85542 -85.40723 18926 ft 487 kts 72°
2026-05-08 01:35 39.86314 -85.36400 19329 ft 492 kts 72°
2026-05-08 01:35 39.87078 -85.32097 19727 ft 497 kts 72°
2026-05-08 01:36 39.87868 -85.27701 20121 ft 501 kts 72°
2026-05-08 01:36 39.88582 -85.23253 20651 ft 505 kts 78°
2026-05-08 01:36 39.88881 -85.18669 21155 ft 509 kts 85°
2026-05-08 01:36 39.88977 -85.14050 21653 ft 512 kts 86°
2026-05-08 01:37 39.89297 -85.05672 22046 ft 524 kts 83°
2026-05-08 01:37 39.89895 -84.96114 22697 ft 534 kts 82°
2026-05-08 01:37 39.90443 -84.86374 23364 ft 543 kts 83°
2026-05-08 01:37 39.90956 -84.76491 23969 ft 550 kts 84°
2026-05-08 01:38 39.91470 -84.66489 24528 ft 557 kts 84°
2026-05-08 01:38 39.91975 -84.56346 24993 ft 564 kts 84°
2026-05-08 01:38 39.92484 -84.46117 25514 ft 568 kts 84°
2026-05-08 01:38 39.92983 -84.35793 26029 ft 572 kts 84°
2026-05-08 01:39 39.93758 -84.25523 26826 ft 563 kts 71°
2026-05-08 01:39 39.97188 -84.16737 27675 ft 530 kts 40°
2026-05-08 01:39 40.02432 -84.10208 28200 ft 524 kts 35°
2026-05-08 01:39 40.07345 -84.02985 28615 ft 537 kts 42°
2026-05-08 01:40 40.12132 -83.95445 28986 ft 541 kts 41°
2026-05-08 01:40 40.17061 -83.87985 29308 ft 545 kts 41°
2026-05-08 01:40 40.22025 -83.80455 29642 ft 548 kts 41°
2026-05-08 01:40 40.27019 -83.72865 29956 ft 551 kts 41°
2026-05-08 01:41 40.32031 -83.65235 30222 ft 555 kts 41°
2026-05-08 01:41 40.37086 -83.57537 30437 ft 558 kts 41°
2026-05-08 01:41 40.42143 -83.49791 30588 ft 561 kts 41°
2026-05-08 01:41 40.47218 -83.42004 30773 ft 563 kts 41°
2026-05-08 01:42 40.52239 -83.34274 30954 ft 564 kts 41°
2026-05-08 01:42 40.57329 -83.26424 31120 ft 565 kts 41°
2026-05-08 01:42 40.62425 -83.18544 31266 ft 566 kts 41°
2026-05-08 01:43 40.72665 -83.02656 31536 ft 570 kts 41°
2026-05-08 01:43 40.77795 -82.94670 31704 ft 570 kts 41°
2026-05-08 01:43 40.82902 -82.86689 31853 ft 569 kts 41°
2026-05-08 01:43 40.88007 -82.78686 32037 ft 569 kts 41°
2026-05-08 01:44 40.93106 -82.70697 32265 ft 569 kts 41°
2026-05-08 01:44 40.98195 -82.62671 32407 ft 568 kts 41°
2026-05-08 01:44 41.03269 -82.54657 32555 ft 568 kts 41°
2026-05-08 01:44 41.08345 -82.46627 32703 ft 567 kts 41°
2026-05-08 01:45 41.13399 -82.38611 33040 ft 565 kts 42°
2026-05-08 01:45 41.18437 -82.30574 33146 ft 565 kts 42°
2026-05-08 01:45 41.23469 -82.22549 33302 ft 565 kts 42°
2026-05-08 01:45 41.28415 -82.14626 33449 ft 565 kts 43°
2026-05-08 01:46 41.32349 -82.05261 33631 ft 584 kts 66°
2026-05-08 01:46 41.34570 -81.94841 33756 ft 588 kts 75°
2026-05-08 01:46 41.35547 -81.84021 33881 ft 591 kts 88°
2026-05-08 01:47 41.35799 -81.71562 33941 ft 592 kts 86°
2026-05-08 01:47 41.36391 -81.60628 34130 ft 589 kts 85°
2026-05-08 01:48 41.36903 -81.49974 34794 ft 577 kts 86°
2026-05-08 01:48 41.37139 -81.44645 34894 ft 577 kts 86°
2026-05-08 01:48 41.37598 -81.33947 34968 ft 580 kts 86°
2026-05-08 01:49 41.38036 -81.23546 34994 ft 583 kts 86°
2026-05-08 01:49 41.38481 -81.12726 34994 ft 587 kts 86°
2026-05-08 01:50 41.38918 -81.01842 34987 ft 590 kts 86°
2026-05-08 01:50 41.39349 -80.90918 34998 ft 592 kts 86°
2026-05-08 01:51 41.39768 -80.79942 34987 ft 595 kts 86°
2026-05-08 01:51 41.40181 -80.68929 35010 ft 595 kts 86°
2026-05-08 01:52 41.40578 -80.57993 34978 ft 587 kts 86°
2026-05-08 01:52 41.40963 -80.47196 34971 ft 581 kts 87°
2026-05-08 01:53 41.41333 -80.36495 34980 ft 576 kts 87°
2026-05-08 01:53 41.41689 -80.25883 34982 ft 571 kts 87°
2026-05-08 01:54 41.42034 -80.15344 34974 ft 568 kts 87°
2026-05-08 01:54 41.41687 -80.04837 34978 ft 570 kts 99°
2026-05-08 01:55 41.40446 -79.94419 34980 ft 576 kts 101°
2026-05-08 01:55 41.39407 -79.83797 34980 ft 581 kts 98°
2026-05-08 01:56 41.38423 -79.73073 34975 ft 585 kts 99°
2026-05-08 01:56 41.37343 -79.62288 34980 ft 589 kts 99°
2026-05-08 01:57 41.36251 -79.51441 34972 ft 592 kts 99°
2026-05-08 01:57 41.35144 -79.40553 34956 ft 595 kts 99°
2026-05-08 01:58 41.34032 -79.29721 34951 ft 587 kts 99°
2026-05-08 01:58 41.32923 -79.19028 34939 ft 580 kts 99°
2026-05-08 01:59 41.31815 -79.08443 34933 ft 575 kts 99°
2026-05-08 01:59 41.30714 -78.98030 34927 ft 570 kts 99°
2026-05-08 02:00 41.29602 -78.87622 34936 ft 566 kts 99°
2026-05-08 02:00 41.28484 -78.77214 34934 ft 571 kts 100°
2026-05-08 02:01 41.27349 -78.66705 34910 ft 577 kts 100°
2026-05-08 02:01 41.26568 -78.59621 34927 ft 580 kts 100°
2026-05-08 02:02 41.25015 -78.45441 34938 ft 585 kts 100°
2026-05-08 02:02 41.23813 -78.34720 34950 ft 588 kts 100°
2026-05-08 02:03 41.22616 -78.24014 34945 ft 589 kts 101°
2026-05-08 02:03 41.21400 -78.13324 34935 ft 581 kts 101°
2026-05-08 02:04 41.20094 -78.02815 34917 ft 575 kts 102°
2026-05-08 02:04 41.18795 -77.92387 34898 ft 569 kts 102°
2026-05-08 02:05 41.17498 -77.82056 34899 ft 565 kts 102°
2026-05-08 02:05 41.16206 -77.71813 34906 ft 561 kts 102°
2026-05-08 02:06 41.14919 -77.61711 34908 ft 557 kts 102°
2026-05-08 02:06 41.13622 -77.51601 34899 ft 554 kts 103°
2026-05-08 02:07 41.12322 -77.41541 34908 ft 552 kts 103°
2026-05-08 02:07 41.11021 -77.31537 34896 ft 550 kts 103°
2026-05-08 02:08 41.09713 -77.21571 34870 ft 547 kts 103°
2026-05-08 02:08 41.08404 -77.11659 34894 ft 545 kts 103°
2026-05-08 02:09 41.07094 -77.01791 34906 ft 542 kts 103°
2026-05-08 02:09 41.05779 -76.91965 34893 ft 540 kts 104°
2026-05-08 02:10 41.04463 -76.82180 34877 ft 538 kts 104°
2026-05-08 02:10 41.03149 -76.72506 34890 ft 536 kts 104°
2026-05-08 02:11 41.01575 -76.62896 34890 ft 530 kts 112°
2026-05-08 02:11 40.99214 -76.53706 34894 ft 526 kts 115°
2026-05-08 02:12 40.96944 -76.44490 34836 ft 526 kts 112°
2026-05-08 02:12 40.94777 -76.35272 34879 ft 524 kts 112°
2026-05-08 02:13 40.92582 -76.26092 34898 ft 522 kts 113°
2026-05-08 02:13 40.90350 -76.16957 34919 ft 522 kts 113°
2026-05-08 02:14 40.88127 -76.07832 34915 ft 520 kts 114°
2026-05-08 02:14 40.86274 -76.00280 34916 ft 520 kts 114°
2026-05-08 02:15 40.83675 -75.89726 34874 ft 519 kts 114°
2026-05-08 02:15 40.81798 -75.82141 34872 ft 518 kts 114°
2026-05-08 02:16 40.79552 -75.73110 34874 ft 517 kts 114°
2026-05-08 02:16 40.77323 -75.64152 34884 ft 517 kts 114°
2026-05-08 02:17 40.75068 -75.55156 34888 ft 516 kts 114°
2026-05-08 02:17 40.72825 -75.46178 34891 ft 516 kts 114°
2026-05-08 02:18 40.70812 -75.36986 34880 ft 528 kts 109°
2026-05-08 02:18 40.69043 -75.27520 34892 ft 536 kts 109°
2026-05-08 02:19 40.66901 -75.18122 34886 ft 532 kts 122°
2026-05-08 02:19 40.62988 -75.10014 34898 ft 523 kts 136°
2026-05-08 02:20 40.58374 -75.02612 34870 ft 532 kts 133°
2026-05-08 02:20 40.56364 -74.98411 34169 ft 551 kts 128°
2026-05-08 02:20 40.54562 -74.94001 33289 ft 544 kts 122°
2026-05-08 02:21 40.53139 -74.89487 32385 ft 537 kts 117°
2026-05-08 02:21 40.51891 -74.84913 31488 ft 526 kts 116°
2026-05-08 02:21 40.50676 -74.80423 30627 ft 516 kts 117°
2026-05-08 02:21 40.49421 -74.76068 29753 ft 505 kts 119°
2026-05-08 02:22 40.48121 -74.71826 28782 ft 496 kts 120°
2026-05-08 02:22 40.46847 -74.67652 27824 ft 488 kts 119°
2026-05-08 02:22 40.45614 -74.63535 26932 ft 480 kts 119°
2026-05-08 02:22 40.44394 -74.59484 26050 ft 473 kts 118°
2026-05-08 02:23 40.43507 -74.55324 25185 ft 478 kts 102°
2026-05-08 02:23 40.43486 -74.50972 24361 ft 478 kts 82°
2026-05-08 02:23 40.44365 -74.46804 23590 ft 472 kts 68°
2026-05-08 02:23 40.45616 -74.42855 22691 ft 461 kts 65°
2026-05-08 02:24 40.46855 -74.39061 21583 ft 445 kts 67°
2026-05-08 02:24 40.47960 -74.35330 20396 ft 433 kts 70°
2026-05-08 02:24 40.48931 -74.31642 19325 ft 422 kts 72°
2026-05-08 02:24 40.49849 -74.28028 18262 ft 412 kts 72°
2026-05-08 02:25 40.50766 -74.24506 17030 ft 404 kts 72°
2026-05-08 02:25 40.51661 -74.21033 15747 ft 397 kts 71°
2026-05-08 02:25 40.52540 -74.17625 14517 ft 390 kts 70°
2026-05-08 02:25 40.53433 -74.14294 13292 ft 385 kts 69°
2026-05-08 02:26 40.54333 -74.10939 12002 ft 392 kts 69°
2026-05-08 02:26 40.55262 -74.07626 10778 ft 390 kts 63°
2026-05-08 02:26 40.56839 -74.04835 9746 ft 372 kts 37°
2026-05-08 02:26 40.58937 -74.03002 8845 ft 354 kts 26°
2026-05-08 02:27 40.61039 -74.01417 7950 ft 343 kts 27°
2026-05-08 02:27 40.63009 -73.99707 7066 ft 338 kts 41°
2026-05-08 02:27 40.64414 -73.97272 6190 ft 332 kts 57°
2026-05-08 02:27 40.65543 -73.94658 5458 ft 321 kts 61°
2026-05-08 02:28 40.66559 -73.92151 5059 ft 300 kts 61°
2026-05-08 02:28 40.67518 -73.89795 4671 ft 284 kts 61°
2026-05-08 02:28 40.68422 -73.87550 4274 ft 271 kts 62°
2026-05-08 02:28 40.69110 -73.85298 3883 ft 261 kts 75°
2026-05-08 02:29 40.69525 -73.83012 3509 ft 252 kts 77°
2026-05-08 02:29 40.69746 -73.80774 3228 ft 241 kts 85°
2026-05-08 02:29 40.69839 -73.78624 2966 ft 230 kts 86°
2026-05-08 02:29 40.69894 -73.76630 2922 ft 195 kts 87°
2026-05-08 02:30 40.70119 -73.75005 2685 ft 187 kts 58°
2026-05-08 02:30 40.71173 -73.74018 2441 ft 192 kts 15°
2026-05-08 02:30 40.72401 -73.73598 2252 ft 173 kts 12°
2026-05-08 02:30 40.73504 -73.73789 1956 ft 160 kts 326°
2026-05-08 02:31 40.74018 -73.75037 1594 ft 162 kts 279°
2026-05-08 02:31 40.74169 -73.76465 1405 ft 151 kts 279°
2026-05-08 02:31 40.74294 -73.77817 1268 ft 153 kts 278°
2026-05-08 02:31 40.74490 -73.79161 1219 ft 138 kts 290°
2026-05-08 02:32 40.74847 -73.80331 1000 ft 151 kts 296°
2026-05-08 02:32 40.75311 -73.81582 873 ft 156 kts 298°
2026-05-08 02:32 40.75823 -73.82799 742 ft 142 kts 302°
2026-05-08 02:32 40.76358 -73.83906 426 ft 152 kts 303°
2026-05-08 02:33 40.76912 -73.85090 178 ft 152 kts 304°
2026-05-08 02:33 40.77462 -73.86252 19 ft 141 kts 303°
2026-05-08 02:33 40.77906 -73.87169 13 ft 88 kts 303°
2026-05-08 02:33 40.78037 -73.87451 12 ft 16 kts 276°
2026-05-08 02:34 40.77972 -73.87542 14 ft 13 kts 212°
2026-05-08 02:34 40.77911 -73.87586 16 ft 3 kts 182°
2026-05-08 02:34 40.77890 -73.87549 16 ft 11 kts 113°
2026-05-08 02:34 40.77850 -73.87450 13 ft 14 kts 123°
2026-05-08 02:35 40.77770 -73.87405 13 ft 13 kts 206°
2026-05-08 02:35 40.77683 -73.87445 18 ft 15 kts 201°
2026-05-08 02:35 40.77586 -73.87518 18 ft 16 kts 211°
2026-05-08 02:35 40.77491 -73.87499 18 ft 16 kts 121°
2026-05-08 02:36 40.77468 -73.87391 18 ft 8 kts 109°
2026-05-08 02:36 40.77460 -73.87369 18 ft 4 kts 120°
2026-05-08 02:36 40.77427 -73.87267 19 ft 15 kts 97°
2026-05-08 02:36 40.77409 -73.87173 18 ft 9 kts 76°
2026-05-08 02:37 40.77449 -73.87127 18 ft 5 kts 33°
2026-05-08 02:37 40.77476 -73.87119 18 ft 3 kts 336°
2026-05-08 02:37 40.77496 -73.87138 18 ft 4 kts 323°
2026-05-08 02:37 40.77510 -73.87151 18 ft 0 kts 325°